sat.trackr.live / text

‹ back to catalog

STARLINK-33776

NORAD 63851 · 2025-093R

PAYLOAD ACTIVE UNKNOWN

§ Identity

Operator
Country
US
Launch date
2025-05-07
Launch site
AFETR
Launch vehicle
Mass (kg)
RCS (m²)

Purposes: comms

External: N2YO · Heavens-Above · Gunter

§ Orbital elements

Epoch: 2026-09-20T03:26:57.335424Z

Period
94.26 min
Inclination
43.0001°
Eccentricity
0.0001231
Mean motion
15.27647036 rev/d
Perigee alt
482.0 km
Apogee alt
483.7 km
Semi-major
6,861.0 km
B*
1.4037e-3
RAAN
59.5326°
Arg perigee
251.0773°
Mean anomaly
108.9945°
Rev number
7,770

§ Raw data

STARLINK-337761 63851U 25093R   26263.14371916  .00038646  00000+0  14037-2 0  99962 63851  43.0001  59.5326 0001231 251.0773 108.9945 15.27647036 77703

JSON: /api/v1/satellites/63851 · /tle

For live sub-satellite position, see the globe view (requires WebGL).

§ Visibility from observer

Set your observer location to see the next 7 days of passes ≥ 10°. The values pass through the URL so the page stays shareable.

No JS? Fill the form by hand. The geolocation button needs JavaScript.